Location: Arleux
(50.3632°N, 2.8721°E)
Time: 01:16:02
(UTC+00:00)

Cosmos 2082 Rocket - Pass Details

Date: 15 December 2019
Orbit: 834 x 852 km, 71.0° (Epoch: 17 January)

Event Time Altitude Azimuth Distance (km) Brightness Sun altitude
Exits shadow 06:21:41 - 335° (NNW) 2,780 4.5 -11.9°
Reaches altitude 10° 06:22:32 10° 337° (NNW) 2,467 4.2 -11.8°
Maximum altitude 06:28:05 54° 54° (NE) 1,013 2.8 -11.0°
Drops below altitude 10° 06:33:34 10° 132° (SE) 2,444 6.0 -10.2°
Sets 06:36:03 0° 137° (SE) 3,374 6.8 -9.8°
